Regional Weather Roundup
Issued by NWS

Home | Current Version | Previous Version | Text Only | Print | Product List | Glossary On
Versions: 1 2 3 4 5 6 7 8 9 10 11 12 13 14 15 16 17 18 19 20 21 22 23 24 25 26 27 28 29 30 31 32 33 34 35 36 37 38 39 40 41 42 43 44 45 46 47 48 49 50
000
ASCA42 TJSJ 202211
RWRPR
PUERTO RICO/U.S. VIRGIN ISLANDS HOURLY WEATHER ROUNDUP
NATIONAL WEATHER SERVICE SAN JUAN PR
600 PM AST WED AUG 20 2014

PRZ001-004-202300-
PUERTO RICO

CITY           SKY/WX    TMP DP  RH WIND       PRES   REMARKS
SAN JUAN LMM   MOSUNNY   82  77  83 E9        30.00R HX  91
MAYAGUEZ       PTSUNNY   81  75  83 E6        30.00S
AGUADILLA      CLOUDY    81  77  89 E12G17    30.01R
CEIBA          MOCLDY    82  75  78 NE8       30.02R
$$

PRZ006-007-202300-
U.S. VIRGIN ISLANDS

CITY           SKY/WX    TMP DP  RH WIND       PRES   REMARKS
CHARLOTTE AMA  CLEAR     86  73  66 E8        29.99  HX  93
CHRISTIANSTED  PTCLDY    86  73  66 NE13      29.99  HX  93
$$

HOURLY WEATHER ROUNDUP FOR THE NEWS MEDIA

CITY           SKY/WX    TMP DP  RH WIND       PRES   REMARKS
MIAMI          PTSUNNY   88  76  67 E8        30.05F HX  99
ORLANDO        SUNNY     94  69  44 W10       30.03S HX  99
NEW YORK       MOSUNNY   77  57  50 S9        30.01S
NEWARK         MOSUNNY   78  58  49 SE9       29.99R
CHICAGO        PTSUNNY   85  63  47 W12       29.87R
HARTFORD       SUNNY     73  61  65 SE8       30.01R
BOSTON         MOSUNNY   69  61  75 E7        30.04R
DALLAS         MOSUNNY   96  65  35 S12G26    29.89F HX  98
PHILADELPHIA   CLOUDY    82  67  60 S10       29.97S



USA.gov is the U.S. government's official web portal to all federal, state and local government web resources and services.